{"data":{"norad_id":66731,"intl_designator":"2025-276BT","name":"FLOCK 4H-28","alt_names":[],"object_type":"PAYLOAD","status":"ACTIVE","operator":null,"country":"US","launch_date":"2025-11-28","launch_site_code":"AFWTR","launch_vehicle":null,"mission":null,"orbit_class":"UNKNOWN","rcs_meters":null,"size_class":null,"mass_kg":null,"dimensions":null,"purposes":["earth_obs"],"wikipedia_slug":null,"has_3d_model":false,"image_url":null,"decayed_at":null,"tle_current":{"epoch":"2026-05-24T22:15:57.052224Z","epoch_age_seconds":92014,"freshness":"FRESH","line1":"1 66731U 25276BT  26144.92774366  .00005285  00000+0  25323-3 0  9993","line2":"2 66731  97.4184 218.7318 0006173  95.7927 264.4012 15.19336817 26881","mean_motion":15.19336817,"eccentricity":0.0006173,"inclination_deg":97.4184,"raan_deg":218.7318,"arg_perigee_deg":95.7927,"mean_anomaly_deg":264.4012,"bstar":0.00025323,"rev_number":2688,"period_min":94.778194267901,"perigee_km":503.59296693132,"apogee_km":512.09439868231,"semimajor_km":6885.9806828068,"source":"CELESTRAK","updated_at":"2026-05-25T13:38:13.372451Z"}}}